Overview Statistics Trail Chart Weather Telemetry Raw packets
 

This is the latest recevied weather packets stored in our database for station/object VK4TW-13. If no packets are shown the sender has not sent any weather packets the latest 10 day(s).

<< 61 62 63 64 65 66 67 >>
Time Temp. Humidity Pressure Rain* Wind** Luminosity Snow
1787889950 25.56° C 100% 1021.9 hPa 0 mm - - -
1787889751 26.11° C 100% 1021.8 hPa 0 mm - - -
1787889538 26.11° C 100% 1021.8 hPa 0 mm - - -
1787888937 26.11° C 100% 1021.9 hPa 0 mm - - -
1787888578 26.67° C 100% 1022 hPa 0 mm - - -
1787888262 26.67° C 100% 1022.1 hPa 0 mm - - -
1787887977 26.67° C 100% 1022.3 hPa 0 mm - - -
1787887797 27.22° C 100% 1022.3 hPa 0 mm - - -
1787887517 27.22° C 100% 1022.4 hPa 0 mm - - -
1787886916 27.78° C 97% 1022.5 hPa 0 mm - - -
1787886315 27.22° C 97% 1022.5 hPa 0 mm - - -
1787886119 27.22° C 96% 1022.6 hPa 0 mm - - -
1787885595 27.78° C 90% 1022.7 hPa 0 mm - - -
1787884995 27.78° C 87% 1022.9 hPa 0 mm - - -
1787884396 27.22° C 91% 1023.1 hPa 0 mm - - -
1787883793 26.67° C 85% 1023.3 hPa 0 mm - - -
1787883192 27.22° C 85% 1023.5 hPa 0 mm - - -
1787882591 27.78° C 81% 1023.7 hPa 0 mm - - -
1787881989 27.78° C 85% 1023.8 hPa 0 mm - - -
1787881389 27.78° C 84% 1023.9 hPa 0 mm - - -
1787880791 27.78° C 85% 1024.2 hPa 0 mm - - -
1787880496 27.78° C 81% 1024.2 hPa 0 mm - - -
1787880260 28.33° C 85% 1024.3 hPa 0 mm - - -
1787879663 28.33° C 88% 1024.4 hPa 0 mm - - -
1787879061 27.78° C 93% 1024.5 hPa 0 mm - - -

* Rain since midnight (hover to see other rain measurements)
** Current wind speed in m/s (hover to see current wind gust speed)